Location: Rattle Snake Springs
(32.1112°N, 104.4750°W)
Time: 19:54:57
(UTC-07:00)

Amateur Radio Satellites - All Passes

Search period start: 17 November 2017 19:24
Search period end: 18 November 2017 19:24
Location: Rattle Snake Springs, 32.1112°N, 104.4750°W

Satellite Date Start Highest point End Downlink Frequencies (MHz)
Time Altitude Azimuth
CUBEBUG 2 17 Nov 19:54:52 19:57:22 14° 266° (W) 19:59:52 437.445
DELFI C3 17 Nov 20:09:24 20:12:29 22° 72° (ENE) 20:15:35 145.870
AO-73 17 Nov 20:15:20 20:19:12 30° 263° (W) 20:22:59 145.935
SRMSAT 17 Nov 20:17:18 20:22:01 24° 177° (S) 20:26:45 437.500
FO-29 17 Nov 20:25:35 20:33:28 71° 102° (ESE) 20:40:48 435.910
RS-15 17 Nov 20:27:29 20:38:53 43° 309° (NW) 20:50:21 29.354- 29.394
STRAND 1 17 Nov 20:28:20 20:32:15 23° 292° (WNW) 20:36:09 437.568
JUGNU 17 Nov 20:30:23 20:33:47 16° 194° (SSW) 20:37:12 437.505
Max Valier Satellite 17 Nov 20:30:35 20:33:40 26° 73° (ENE) 20:36:45 145.860
nSIGHT-1 17 Nov 20:34:23 20:37:03 25° 129° (SE) 20:39:44 .
Oscar 11 17 Nov 20:36:35 20:40:09 26° 263° (W) 20:43:45 .
EO-88 17 Nov 20:38:29 20:41:19 22° 72° (ENE) 20:44:10 145.990 - 145.960
UNISAT 6 17 Nov 20:46:41 20:49:09 15° 94° (E) 20:51:36 437.425
TIGRISAT 17 Nov 20:52:02 20:54:38 16° 94° (E) 20:57:13 435.000
ISS 17 Nov 21:05:14 21:08:22 47° 132° (SE) 21:11:31 437.550
PRISM 17 Nov 21:23:35 21:25:24 13° 94° (E) 21:27:11 437.425
DELFI C3 17 Nov 21:44:15 21:47:06 19° 265° (W) 21:49:59 145.870
Max Valier Satellite 17 Nov 22:05:35 22:07:27 13° 265° (W) 22:09:19 145.860
SRMSAT 17 Nov 22:06:04 22:10:37 23° 187° (S) 22:15:11 437.500
SO-50 17 Nov 22:09:08 22:13:35 84° 116° (ESE) 22:18:04 436.795
nSIGHT-1 17 Nov 22:10:41 22:13:14 22° 323° (NW) 22:15:47 .
FO-29 17 Nov 22:12:07 22:17:35 21° 297° (WNW) 22:22:54 435.910
EO-88 17 Nov 22:12:40 22:14:52 15° 265° (W) 22:17:05 145.990 - 145.960
UNISAT 6 17 Nov 22:22:05 22:25:55 33° 287° (WNW) 22:29:42 437.425
TIGRISAT 17 Nov 22:27:35 22:31:21 31° 287° (WNW) 22:35:05 435.000
ISS 17 Nov 22:43:07 22:45:01 15° 327° (NNW) 22:46:56 437.550
LO-87 17 Nov 22:47:59 22:51:30 51° 260° (W) 22:55:02 145.935 - 145.965
ESTCUBE 1 17 Nov 22:48:06 22:52:33 90° 133° (SE) 22:57:03 437.505/2401.250
RS-15 17 Nov 22:51:06 22:56:04 13° 339° (NNW) 23:01:00 29.354- 29.394
PRISM 17 Nov 22:56:54 23:00:45 38° 287° (WNW) 23:04:35 437.425
DUCHIFAT 1 17 Nov 22:57:14 22:58:14 11° 93° (E) 22:59:14 145.980
EO-79 17 Nov 22:58:13 23:00:49 16° 95° (E) 23:03:23 145.935-145.965
NANOSAT C BR1 17 Nov 23:04:02 23:06:41 16° 95° (E) 23:09:20 145.865
POLYITAN 1 17 Nov 23:11:44 23:15:07 23° 97° (E) 23:18:29 437.675
SPROUT 17 Nov 23:16:41 23:20:40 39° 74° (ENE) 23:24:40 437.525
VELOX 1 17 Nov 23:26:03 23:29:57 32° 72° (ENE) 23:33:54 145.980
QB50P2 17 Nov 23:34:08 23:38:14 52° 100° (E) 23:42:18 145.880/145.840
AIST 2D 17 Nov 23:38:17 23:41:26 32° 286° (WNW) 23:44:36 435.315
PCSat 17 Nov 23:42:22 23:46:46 26° 107° (ESE) 23:51:10 145.827
NO-84 17 Nov 23:43:59 23:48:10 54° 46° (NE) 23:52:13 435.350 FM
SRMSAT 17 Nov 23:56:18 23:59:10 14° 196° (SSW) 00:02:03 437.500
BUGSAT 1 18 Nov 00:03:39 00:06:01 15° 95° (E) 00:08:21 437.445
50 SAT 18 Nov 00:09:30 00:11:43 17° 72° (ENE) 00:13:57 437.505
O/OREOS (USA 219) 18 Nov 00:20:40 00:25:10 69° 254° (WSW) 00:29:38 437.305
DX 1 18 Nov 00:23:40 00:27:28 31° 72° (ENE) 00:31:18 434.975-435.025
DUCHIFAT 1 18 Nov 00:30:06 00:34:03 43° 286° (WNW) 00:37:59 145.980
EO-79 18 Nov 00:32:54 00:36:34 30° 287° (WNW) 00:40:13 145.935-145.965
NANOSAT C BR1 18 Nov 00:38:45 00:42:22 29° 288° (WNW) 00:45:59 145.865
POLYITAN 1 18 Nov 00:47:35 00:50:43 21° 290° (WNW) 00:53:50 437.675
SPROUT 18 Nov 00:54:39 00:56:39 13° 266° (W) 00:58:39 437.525
VELOX 1 18 Nov 01:03:29 01:06:24 17° 265° (W) 01:09:20 145.980
RS-15 18 Nov 01:12:44 01:16:55 12° 19° (NNE) 01:21:02 29.354- 29.394
UKube-1 18 Nov 01:13:12 01:17:29 75° 76° (ENE) 01:21:48 .
NO-84 18 Nov 01:22:57 01:25:05 14° 241° (WSW) 01:27:11 435.350 FM
Gurwin Techsat 1B 18 Nov 01:25:03 01:30:12 50° 100° (E) 01:35:20 435.225
PCSat 18 Nov 01:25:05 01:29:57 34° 301° (WNW) 01:34:50 145.827
Oscar 19 18 Nov 01:29:28 01:34:38 82° 104° (ESE) 01:39:48 437.125/150
BUGSAT 1 18 Nov 01:37:52 01:41:22 29° 287° (WNW) 01:44:50 437.445
MOZHAYETS 4 18 Nov 01:37:58 01:41:21 21° 70° (ENE) 01:44:43
50 SAT 18 Nov 01:41:44 01:43:41 15° 264° (W) 01:45:40 437.505
M-CUBED/EXP-1 PRIME 18 Nov 01:43:26 01:46:39 19° 100° (E) 01:49:54 437.505
BEESAT 3 18 Nov 01:58:10 01:59:45 12° 108° (ESE) 02:01:22 437.485
DX 1 18 Nov 02:00:44 02:03:38 17° 265° (W) 02:06:33 434.975-435.025
BEESAT 18 Nov 02:19:12 02:23:47 49° 73° (ENE) 02:28:22 436.000
ITUPSAT 1 18 Nov 02:26:14 02:30:56 58° 74° (ENE) 02:35:38 437.325
BEESAT 2 18 Nov 02:59:37 03:02:13 17° 109° (ESE) 03:04:51 435.950
Gurwin Techsat 1B 18 Nov 03:06:24 03:09:41 17° 294° (WNW) 03:12:57 435.225
ITAMSAT 1 18 Nov 03:14:07 03:19:03 43° 100° (E) 03:23:56 435.822/435.867
MOZHAYETS 4 18 Nov 03:14:18 03:18:16 29° 263° (W) 03:22:14
CUBESAT XI-V 18 Nov 03:15:30 03:19:56 54° 75° (ENE) 03:24:25 437.345
M-CUBED/EXP-1 PRIME 18 Nov 03:16:52 03:20:59 35° 292° (WNW) 03:25:11 437.505
AO-7 18 Nov 03:18:24 03:26:41 66° 104° (ESE) 03:34:57 .
RS-15 18 Nov 03:23:18 03:34:12 40° 50° (NE) 03:44:29 29.354- 29.394
AO-85 18 Nov 03:29:23 03:31:00 12° 108° (ESE) 03:32:38 145.980
BEESAT 3 18 Nov 03:33:09 03:36:53 39° 301° (WNW) 03:40:40 437.485
DOVE 4 18 Nov 03:44:45 03:46:59 13° 91° (E) 03:49:09 437.250
KKS-1 18 Nov 03:55:25 03:59:24 32° 72° (ENE) 04:03:23 437.445
BEESAT 18 Nov 03:59:33 04:01:44 13° 266° (W) 04:03:54 436.000
ITUPSAT 1 18 Nov 04:07:47 04:09:00 11° 267° (W) 04:10:13 437.325
STARS 18 Nov 04:30:02 04:33:53 30° 72° (ENE) 04:37:46 437.465
BEESAT 2 18 Nov 04:36:09 04:39:40 29° 303° (WNW) 04:43:14 435.950
nSIGHT-1 18 Nov 04:40:34 04:43:32 36° 41° (NE) 04:46:29 .
YUBILEINY 18 Nov 04:51:00 04:58:39 36° 87° (E) 05:06:21 435.215
ITAMSAT 1 18 Nov 04:54:36 04:58:07 19° 293° (WNW) 05:01:37 435.822/435.867
CUBESAT XI-V 18 Nov 04:56:38 04:57:33 11° 268° (W) 04:58:28 437.345
XW-2B 18 Nov 05:07:19 05:09:31 15° 95° (E) 05:11:41 145.730 - 145.750
AO-85 18 Nov 05:07:25 05:10:58 35° 303° (WNW) 05:14:37 145.980
AO-7 18 Nov 05:12:28 05:18:44 24° 300° (WNW) 05:25:01 .
ISS 18 Nov 05:12:58 05:16:12 71° 44° (NE) 05:19:25 437.550
DOVE 4 18 Nov 05:19:53 05:24:58 56° 285° (WNW) 05:29:48 437.250
LilacSat-2 18 Nov 05:29:04 05:32:32 32° 98° (E) 05:36:00 437.200
XW-2C 18 Nov 05:31:35 05:35:00 32° 98° (E) 05:38:26 145.795 - 145.815
KKS-1 18 Nov 05:32:58 05:35:57 17° 265° (W) 05:38:56 437.445
RS-15 18 Nov 05:35:43 05:46:49 53° 251° (WSW) 05:57:23 29.354- 29.394
NUDT-PHONESAT 18 Nov 05:37:04 05:40:07 24° 97° (E) 05:43:10 437.300
XW-2F 18 Nov 05:45:27 05:49:05 46° 99° (E) 05:52:45 145.980 - 146.000
CUTE 1.7 + AOD 2 18 Nov 05:53:58 05:55:47 12° 93° (E) 05:57:37 437.475
CUTE-I 18 Nov 05:59:57 06:05:14 56° 101° (E) 06:10:27 437.470
STRAND 1 18 Nov 05:59:59 06:04:25 30° 70° (ENE) 06:08:50 437.568
STARS 18 Nov 06:07:06 06:10:11 18° 264° (W) 06:13:18 437.465
CUBEBUG 2 18 Nov 06:14:18 06:15:29 11° 93° (E) 06:16:39 437.445
nSIGHT-1 18 Nov 06:17:53 06:19:29 13° 234° (SW) 06:21:04 .
KAITUO 1B 18 Nov 06:19:26 06:23:11 74° 282° (WNW) 06:26:56 145.475/437.950
XW-2D 18 Nov 06:25:27 06:29:00 39° 285° (WNW) 06:32:33 145.860 - 145.880
SEEDS 18 Nov 06:30:08 06:33:20 21° 96° (E) 06:36:31 437.485
FO-29 18 Nov 06:34:16 06:38:27 18° 61° (ENE) 06:42:54 435.910
XW-2B 18 Nov 06:40:26 06:43:38 26° 287° (WNW) 06:46:51 145.730 - 145.750
SO-50 18 Nov 06:45:23 06:48:56 21° 53° (NE) 06:52:32 436.795
YUBILEINY 18 Nov 06:47:09 06:55:11 41° 283° (WNW) 07:03:20 435.215
AAUSAT CUBESAT 2 18 Nov 06:48:39 06:50:41 13° 93° (E) 06:52:43 437.432
HO-68 18 Nov 06:56:27 07:03:37 69° 103° (ESE) 07:10:43 435.675
LilacSat-2 18 Nov 07:04:45 07:06:27 13° 291° (WNW) 07:08:10 437.200
XW-2C 18 Nov 07:07:10 07:08:50 13° 291° (WNW) 07:10:31 145.795 - 145.815
NUDT-PHONESAT 18 Nov 07:11:29 07:13:43 15° 289° (WNW) 07:15:57 437.300
ZACube-1 18 Nov 07:15:13 07:17:56 17° 95° (E) 07:20:39 437.345
UWE-3 18 Nov 07:16:07 07:19:56 36° 98° (E) 07:23:45 435.000/436.395/437.385
CUTE 1.7 + AOD 2 18 Nov 07:27:44 07:31:43 40° 286° (WNW) 07:35:43 437.475
STRAND 1 18 Nov 07:39:17 07:43:29 25° 263° (W) 07:47:43 437.568
CUTE-I 18 Nov 07:41:44 07:44:44 15° 295° (WNW) 07:47:42 437.470
CUBEBUG 2 18 Nov 07:48:21 07:52:15 41° 286° (WNW) 07:56:08 437.445
XW-2A 18 Nov 07:52:37 07:55:55 61° 283° (WNW) 07:59:13 145.665 - 145.685
SEEDS 18 Nov 08:05:27 08:08:53 24° 288° (WNW) 08:12:20 437.485
AO-73 18 Nov 08:07:11 08:11:19 70° 102° (ESE) 08:15:27 145.935
FO-29 18 Nov 08:16:27 08:22:34 66° 259° (W) 08:29:35 435.910
AAUSAT CUBESAT 2 18 Nov 08:22:21 08:26:12 36° 286° (WNW) 08:30:01 437.432
SO-50 18 Nov 08:25:12 08:29:26 35° 247° (WSW) 08:33:43 436.795
Oscar 11 18 Nov 08:27:28 08:31:49 81° 103° (ESE) 08:36:07 .
HO-68 18 Nov 08:45:53 08:50:36 19° 299° (WNW) 08:55:18 435.675
ZACube-1 18 Nov 08:50:40 08:54:11 28° 287° (WNW) 08:57:42 437.345
UWE-3 18 Nov 08:54:03 08:56:02 13° 292° (WNW) 08:58:00 435.000/436.395/437.385
FALCONSAT 3 18 Nov 09:06:38 09:08:49 15° 147° (SSE) 09:11:00 435.103
UNISAT 6 18 Nov 09:14:55 09:19:33 74° 259° (W) 09:24:07 437.425
TIGRISAT 18 Nov 09:20:14 09:24:51 71° 258° (WSW) 09:29:24 435.000
DELFI C3 18 Nov 09:24:17 09:28:16 72° 100° (E) 09:32:14 145.870
Max Valier Satellite 18 Nov 09:37:49 09:41:28 74° 101° (E) 09:45:07 145.860
PRISM 18 Nov 09:40:33 09:44:37 73° 76° (ENE) 09:48:44 437.425
EO-88 18 Nov 09:44:03 09:47:39 57° 100° (E) 09:51:14 145.990 - 145.960
POLYITAN 1 18 Nov 10:02:23 10:02:52 10° 67° (ENE) 10:03:20 437.675
AIST 2D 18 Nov 10:07:19 10:10:28 34° 75° (ENE) 10:13:36 435.315
PCSat 18 Nov 10:17:00 10:22:25 70° 64° (ENE) 10:27:46 145.827
LO-87 18 Nov 10:20:21 10:22:31 15° 95° (E) 10:24:40 145.935 - 145.965
QB50P2 18 Nov 10:22:26 10:25:39 21° 70° (ENE) 10:28:53 145.880/145.840
FALCONSAT 3 18 Nov 10:43:53 10:47:32 67° 160° (SSE) 10:51:12 435.103
ESTCUBE 1 18 Nov 10:45:38 10:49:29 27° 97° (E) 10:53:19 437.505/2401.250
DUCHIFAT 1 18 Nov 11:16:18 11:20:29 67° 76° (ENE) 11:24:41 145.980
EO-79 18 Nov 11:19:27 11:23:41 82° 257° (WSW) 11:27:57 145.935-145.965
NANOSAT C BR1 18 Nov 11:24:55 11:29:09 80° 257° (WSW) 11:33:24 145.865
POLYITAN 1 18 Nov 11:33:58 11:38:06 53° 260° (W) 11:42:15 437.675
LO-87 18 Nov 11:53:07 11:55:49 21° 288° (WNW) 11:58:30 145.935 - 145.965
BEESAT 3 18 Nov 11:54:21 11:57:31 23° 55° (NE) 12:00:38 437.485
QB50P2 18 Nov 11:57:48 12:01:15 24° 263° (W) 12:04:44 145.880/145.840
PCSat 18 Nov 12:03:30 12:05:06 11° 258° (WSW) 12:06:42 145.827
BUGSAT 1 18 Nov 12:21:34 12:25:47 88° 258° (WSW) 12:29:59 437.445
ESTCUBE 1 18 Nov 12:22:39 12:26:05 22° 290° (WNW) 12:29:31 437.505/2401.250
FALCONSAT 3 18 Nov 12:23:06 12:26:43 51° 354° (N) 12:30:20 435.103
Gurwin Techsat 1B 18 Nov 12:41:18 12:46:24 50° 73° (ENE) 12:51:31 435.225
Oscar 19 18 Nov 12:41:25 12:46:30 73° 76° (ENE) 12:51:36 437.125/150
SPROUT 18 Nov 12:42:21 12:46:28 52° 285° (WNW) 12:50:34 437.525
O/OREOS (USA 219) 18 Nov 12:49:35 12:53:15 24° 102° (ESE) 12:56:57 437.305
VELOX 1 18 Nov 12:56:21 13:00:45 63° 285° (WNW) 13:05:06 145.980
BEESAT 2 18 Nov 12:57:41 13:01:19 32° 57° (ENE) 13:04:53 435.950
50 SAT 18 Nov 13:02:32 13:05:21 27° 98° (E) 13:08:09 437.505
UKube-1 18 Nov 13:05:53 13:08:48 18° 95° (E) 13:11:43 .
BEESAT 3 18 Nov 13:31:57 13:34:53 21° 250° (WSW) 13:37:47 437.485
AO-85 18 Nov 13:41:34 13:46:11 46° 59° (ENE) 13:51:06 145.980
DX 1 18 Nov 13:51:50 13:56:12 70° 284° (WNW) 14:00:31 434.975-435.025
M-CUBED/EXP-1 PRIME 18 Nov 13:58:11 14:01:28 53° 256° (WSW) 14:05:00 437.505
FALCONSAT 3 18 Nov 14:02:26 14:06:05 58° 11° (N) 14:09:43 435.103
AO-7 18 Nov 14:11:55 14:19:58 59° 68° (ENE) 14:28:02 .
Gurwin Techsat 1B 18 Nov 14:23:26 14:26:32 16° 266° (W) 14:29:39 435.225
BEESAT 18 Nov 14:25:01 14:28:14 18° 95° (E) 14:31:27 436.000
ITAMSAT 1 18 Nov 14:27:16 14:32:08 41° 72° (ENE) 14:37:01 435.822/435.867
O/OREOS (USA 219) 18 Nov 14:28:45 14:32:31 25° 296° (WNW) 14:36:18 437.305
ITUPSAT 1 18 Nov 14:32:14 14:35:51 21° 96° (E) 14:39:26 437.325
BEESAT 2 18 Nov 14:36:25 14:38:43 15° 251° (WSW) 14:40:59 435.950
UKube-1 18 Nov 14:41:02 14:44:48 30° 288° (WNW) 14:48:33 .
JUGNU 18 Nov 14:50:07 14:53:27 15° 166° (SSE) 14:56:46 437.505
NO-84 18 Nov 14:54:46 14:58:08 43° 126° (SE) 15:01:48 435.350 FM
YUBILEINY 18 Nov 15:09:52 15:13:08 12° 66° (ENE) 15:16:24 435.215
MOZHAYETS 4 18 Nov 15:13:10 15:17:44 88° 283° (WNW) 15:22:18
CUBESAT XI-V 18 Nov 15:17:27 15:20:52 20° 95° (E) 15:24:16 437.345
AO-85 18 Nov 15:23:08 15:26:19 17° 251° (WSW) 15:29:36 145.980
FALCONSAT 3 18 Nov 15:41:35 15:45:10 48° 204° (SSW) 15:48:44 435.103
BEESAT 18 Nov 16:01:44 16:06:02 35° 288° (WNW) 16:10:19 436.000
AO-7 18 Nov 16:06:33 16:13:00 25° 263° (W) 16:19:29 .
ITAMSAT 1 18 Nov 16:08:04 16:11:40 19° 265° (W) 16:15:17 435.822/435.867
ITUPSAT 1 18 Nov 16:09:30 16:13:37 30° 289° (WNW) 16:17:43 437.325
DOVE 4 18 Nov 16:19:22 16:24:11 84° 79° (E) 16:29:21 437.250
XW-2F 18 Nov 16:23:46 16:24:53 11° 69° (ENE) 16:25:59 145.980 - 146.000
NO-84 18 Nov 16:33:07 16:35:41 17° 323° (NW) 16:38:23 435.350 FM
JUGNU 18 Nov 16:37:19 16:41:49 23° 175° (S) 16:46:20 437.505
CUBESAT XI-V 18 Nov 16:54:05 16:58:12 31° 288° (WNW) 17:02:19 437.345
KAITUO 1B 18 Nov 16:55:00 16:57:52 22° 72° (ENE) 17:00:45 145.475/437.950
XW-2D 18 Nov 17:01:27 17:04:58 42° 75° (ENE) 17:08:30 145.860 - 145.880
YUBILEINY 18 Nov 17:02:20 17:11:14 81° 84° (E) 17:20:03 435.215
XW-2B 18 Nov 17:15:59 17:19:39 66° 77° (ENE) 17:23:22 145.730 - 145.750
CUTE-I 18 Nov 17:16:51 17:22:04 57° 74° (ENE) 17:27:19 437.470
HO-68 18 Nov 17:20:22 17:26:29 31° 66° (ENE) 17:32:37 435.675
KKS-1 18 Nov 17:26:51 17:31:15 63° 285° (WNW) 17:35:37 437.445
RS-15 18 Nov 17:39:30 17:50:26 40° 106° (ESE) 18:01:26 29.354- 29.394
LilacSat-2 18 Nov 17:39:43 17:43:20 48° 260° (W) 17:46:59 437.200
XW-2C 18 Nov 17:41:28 17:45:04 49° 260° (W) 17:48:42 145.795 - 145.815
NUDT-PHONESAT 18 Nov 17:43:59 17:47:36 73° 259° (W) 17:51:15 437.300
XW-2F 18 Nov 17:55:13 17:58:36 34° 262° (W) 18:02:00 145.980 - 146.000
STARS 18 Nov 17:59:31 18:03:53 71° 284° (WNW) 18:08:13 437.465
UWE-3 18 Nov 18:08:53 18:11:58 18° 70° (ENE) 18:15:00 435.000/436.395/437.385
CUTE 1.7 + AOD 2 18 Nov 18:14:54 18:19:03 72° 77° (ENE) 18:23:14 437.475
SRMSAT 18 Nov 18:16:26 18:20:26 19° 168° (SSE) 18:24:27 437.500
STRAND 1 18 Nov 18:16:29 18:19:13 14° 94° (E) 18:21:57 437.568
XW-2A 18 Nov 18:19:45 18:21:56 17° 72° (ENE) 18:24:07 145.665 - 145.685
JUGNU 18 Nov 18:25:46 18:30:14 23° 186° (S) 18:34:44 437.505
KAITUO 1B 18 Nov 18:29:26 18:31:45 16° 265° (W) 18:34:06 145.475/437.950
CUBEBUG 2 18 Nov 18:40:26 18:45:06 83° 79° (ENE) 18:49:40 437.445
SEEDS 18 Nov 18:51:09 18:55:16 68° 259° (W) 18:59:25 437.485
AO-73 18 Nov 18:57:56 19:01:41 29° 73° (ENE) 19:05:23 145.935
CUTE-I 18 Nov 18:59:45 19:02:23 14° 267° (W) 19:05:01 437.470
YUBILEINY 18 Nov 19:01:58 19:06:51 16° 280° (W) 19:11:45 435.215
AAUSAT CUBESAT 2 18 Nov 19:06:48 19:10:53 72° 76° (ENE) 19:14:59 437.432
HO-68 18 Nov 19:07:15 19:13:55 42° 260° (W) 19:20:40 435.675
